Rechercher aéroport 
image banner adimage banner adimage banner ad
image banner ad

CA79 - The Ritz-Carlton Hotel Company

Situé à Marina Del Rey, United States

ICAO - CA79, IATA -

Données fournies par Airmate  

Information générale

Coordonnées: N33°59'4" W118°27'0"
Élévation : 50 feet MSL.
Variation magnétique : 14° East
Voir autres Aéroports à California

Données opérationnelles

Special qualification required
Heure actuelle UTC:
Heure actuelle locale:
Météo à : KSMO - Santa Monica Muni ( 3 km )
METAR: KSMO 300051Z 24007KT 10SM FEW008 19/16 A2986 RMK AO2 SLP109 T01940156
TAF: KSMO 292348Z 3000/3024 23008KT P6SM SKC FM300400 VRB03KT P6SM SKC FM301100 VRB03KT P6SM OVC008 FM301700 23006KT P6SM SCT010 FM302000 26012KT P6SM SKC
Voir NOTAMs / SUP AIP / TFR affectant cet aéroport [VIEW]
Fréquences de communication: [VIEW]

Pistes:

Coordonnées de l'aéroport

Adresse: Marina Del Rey United States

Vue satellite de CA79